This is the latest recevied weather packets stored in our database for station/object IN3MWE-10. If no packets are shown the sender has not sent any weather packets the latest 10 day(s).
| Time | Temp. | Humidity | Pressure | Rain* | Wind** | Luminosity | Snow |
|---|---|---|---|---|---|---|---|
| 1788208524 | 23.89° C | 55% | 980.2 hPa | - | - | - | - |
| 1788207624 | 24.44° C | 54% | 979.8 hPa | - | - | - | - |
| 1788206724 | 24.44° C | 51% | 979.4 hPa | - | - | - | - |
| 1788205824 | 24.44° C | 48% | 979.1 hPa | - | - | - | - |
| 1788204923 | 25° C | 45% | 978.7 hPa | - | - | - | - |
| 1788204023 | 25° C | 45% | 978.4 hPa | - | - | - | - |
| 1788203123 | 25.56° C | 46% | 977.9 hPa | - | - | - | - |
| 1788202223 | 26.67° C | 52% | 977.3 hPa | - | - | - | - |
| 1788201323 | 27.22° C | 58% | 976.8 hPa | - | - | - | - |
| 1788200427 | 26.67° C | 58% | 976.4 hPa | - | - | - | - |
| 1788199523 | 27.22° C | 58% | 976.1 hPa | - | - | - | - |
| 1788198622 | 27.22° C | 56% | 975.7 hPa | - | - | - | - |
| 1788197722 | 28.33° C | 50% | 975.3 hPa | - | - | - | - |
| 1788196822 | 28.33° C | 48% | 975.3 hPa | - | - | - | - |
| 1788195922 | 28.89° C | 48% | 975.3 hPa | - | - | - | - |
| 1788195022 | 29.44° C | 44% | 975.2 hPa | - | - | - | - |
| 1788194122 | 30° C | 42% | 975.2 hPa | - | - | - | - |
| 1788193222 | 30° C | 41% | 975.3 hPa | - | - | - | - |
| 1788192321 | 30.56° C | 38% | 975.5 hPa | - | - | - | - |
| 1788191421 | 33.33° C | 32% | 975.5 hPa | - | - | - | - |
| 1788190521 | 35° C | 28% | 975.3 hPa | - | - | - | - |
| 1788189621 | 35.56° C | 28% | 975.5 hPa | - | - | - | - |
| 1788188721 | 36.11° C | 27% | 975.6 hPa | - | - | - | - |
| 1788187821 | 37.22° C | 26% | 975.8 hPa | - | - | - | - |
| 1788186921 | 36.67° C | 26% | 975.9 hPa | - | - | - | - |
* Rain since midnight (hover to see other rain measurements)
** Current wind speed in m/s (hover to see current wind gust speed)